{"data":{"norad_id":64039,"epoch":"2026-09-20T11:47:46.773312Z","epoch_age_seconds":144227,"freshness":"FRESH","line1":"1 64039U 25102T   26263.49151358  .00012477  00000+0  43776-3 0  9997","line2":"2 64039  70.0009 340.8121 0003198 272.0251  88.0557 15.29578998 75197","mean_motion":15.29578998,"eccentricity":0.0003198,"inclination_deg":70.0009,"raan_deg":340.8121,"arg_perigee_deg":272.0251,"mean_anomaly_deg":88.0557,"bstar":0.00043776,"rev_number":7519,"period_min":94.143552041632,"perigee_km":474.87760159162,"apogee_km":479.26219192279,"semimajor_km":6855.2068967572,"source":"CELESTRAK","updated_at":"2026-09-21T09:00:35.189313Z"}}